When you browse on this site, cookies collect data to enhance your experience and personalize the content and advertising you see.
Visit our Privacy Policy to learn more. By continuing to use the site, you agree to this use of cookies and data.
  • In Hungary
  • List of Countries
  • For 7 days
  • Water Temperature
  • Weather Map
  • News
  • Weather Widgets
  • user-avatar
    Login

    Hourly Weather Petrovskiy

    Today, 17 February, Monday

    Time Temperature Precipitation Wind Pressure Humidity
    00:00 -11°C° 0 mm 5 mps 757 mmHg 94%
    01:00 -10°C° 0 mm 5 mps 757 mmHg 93%
    02:00 -10°C° 0 mm 5 mps 757 mmHg 93%
    03:00 -9°C° 0 mm 6 mps 756 mmHg 93%
    04:00 -9°C° 0 mm 7 mps 756 mmHg 93%
    05:00 -9°C° 0 mm 7 mps 755 mmHg 93%
    06:00 -9°C° 0 mm 7 mps 755 mmHg 93%
    07:00 -8°C° 0 mm 7 mps 754 mmHg 93%
    08:00 -8°C° 0 mm 7 mps 754 mmHg 93%
    09:00 -8°C° 0 mm 8 mps 754 mmHg 94%
    10:00 -7°C° 0 mm 8 mps 753 mmHg 93%
    11:00 -7°C° 0 mm 8 mps 752 mmHg 93%
    12:00 -6°C° 0 mm 9 mps 751 mmHg 92%
    13:00 -6°C° 0 mm 9 mps 751 mmHg 91%
    14:00 -5°C° 0 mm 9 mps 750 mmHg 90%
    15:00 -5°C° 0 mm 10 mps 749 mmHg 86%
    16:00 -5°C° 0 mm 10 mps 748 mmHg 85%
    17:00 -4°C° 0 mm 10 mps 747 mmHg 83%
    18:00 -4°C° 0 mm 10 mps 746 mmHg 82%
    19:00 -4°C° 1.1 mm 10 mps 746 mmHg 86%
    20:00 -4°C° 1.1 mm 11 mps 745 mmHg 91%
    21:00 -4°C° 1.1 mm 11 mps 745 mmHg 96%
    22:00 -4°C° 0.2 mm 11 mps 745 mmHg 94%
    23:00 -4°C° 0.2 mm 11 mps 744 mmHg 92%

    Tomorrow, 18 February, Tuesday

    Time Temperature Precipitation Wind Pressure Humidity
    00:00 -4°C° 0.2 mm 11 mps 744 mmHg 89%
    01:00 -4°C° 0.5 mm 10 mps 744 mmHg 92%
    02:00 -4°C° 0.5 mm 10 mps 744 mmHg 94%
    03:00 -4°C° 0.5 mm 9 mps 744 mmHg 96%
    04:00 -4°C° 0.1 mm 9 mps 744 mmHg 96%
    05:00 -4°C° 0.1 mm 8 mps 744 mmHg 96%
    06:00 -4°C° 0.1 mm 8 mps 744 mmHg 95%
    07:00 -4°C° 0 mm 8 mps 744 mmHg 95%
    08:00 -3°C° 0 mm 7 mps 744 mmHg 95%
    09:00 -2°C° 0 mm 7 mps 745 mmHg 96%
    10:00 -2°C° 0 mm 7 mps 744 mmHg 96%
    11:00 -2°C° 0 mm 7 mps 744 mmHg 97%
    12:00 -2°C° 0 mm 7 mps 744 mmHg 97%
    13:00 -2°C° 0.1 mm 7 mps 744 mmHg 98%
    14:00 -2°C° 0.1 mm 7 mps 744 mmHg 98%
    15:00 -2°C° 0.1 mm 7 mps 744 mmHg 99%
    16:00 -2°C° 0 mm 7 mps 744 mmHg 98%
    17:00 -2°C° 0 mm 7 mps 744 mmHg 97%
    18:00 -2°C° 0 mm 7 mps 744 mmHg 96%
    19:00 -2°C° 0 mm 7 mps 744 mmHg 95%
    20:00 -2°C° 0 mm 6 mps 744 mmHg 95%
    21:00 -2°C° 0 mm 6 mps 745 mmHg 95%
    22:00 -3°C° 0 mm 6 mps 744 mmHg 95%
    23:00 -3°C° 0 mm 6 mps 744 mmHg 95%

    Day after tomorrow, 19 February, Wednesday

    Time Temperature Precipitation Wind Pressure Humidity
    00:00 -3°C° 0 mm 6 mps 743 mmHg 95%
    01:00 -3°C° 0.5 mm 6 mps 743 mmHg 96%
    02:00 -2°C° 0.5 mm 5 mps 743 mmHg 97%
    03:00 -2°C° 0.5 mm 5 mps 743 mmHg 98%
    04:00 -2°C° 0.6 mm 5 mps 742 mmHg 97%
    05:00 -4°C° 0.6 mm 6 mps 742 mmHg 97%
    06:00 -4°C° 0.6 mm 6 mps 741 mmHg 96%
    07:00 -4°C° 0.5 mm 6 mps 741 mmHg 96%
    08:00 -4°C° 0.5 mm 6 mps 741 mmHg 96%
    09:00 -4°C° 0.5 mm 6 mps 741 mmHg 96%
    10:00 -3°C° 0.1 mm 6 mps 741 mmHg 97%
    11:00 -3°C° 0.1 mm 6 mps 741 mmHg 97%
    12:00 -2°C° 0.1 mm 5 mps 741 mmHg 97%
    13:00 -2°C° 0.1 mm 5 mps 741 mmHg 97%
    14:00 -2°C° 0.1 mm 5 mps 741 mmHg 98%
    15:00 -2°C° 0.1 mm 5 mps 741 mmHg 98%
    16:00 -2°C° 0 mm 4 mps 742 mmHg 98%
    17:00 -2°C° 0 mm 4 mps 742 mmHg 98%
    18:00 -1°C° 0 mm 3 mps 742 mmHg 98%
    19:00 -2°C° 0.1 mm 4 mps 742 mmHg 98%
    20:00 -1°C° 0.1 mm 4 mps 743 mmHg 98%
    21:00 -1°C° 0.1 mm 5 mps 743 mmHg 98%
    22:00 -2°C° 0 mm 5 mps 743 mmHg 98%
    23:00 -2°C° 0 mm 5 mps 743 mmHg 98%

    20 February, Thursday

    Time Temperature Precipitation Wind Pressure Humidity
    00:00 -2°C° 0 mm 4 mps 743 mmHg 97%
    01:00 -2°C° 0.1 mm 4 mps 744 mmHg 97%
    02:00 -2°C° 0.1 mm 4 mps 744 mmHg 97%
    03:00 -2°C° 0.1 mm 4 mps 744 mmHg 97%
    04:00 -2°C° 0 mm 4 mps 745 mmHg 96%
    05:00 -3°C° 0 mm 4 mps 745 mmHg 96%
    06:00 -3°C° 0 mm 4 mps 745 mmHg 95%
    07:00 -3°C° 0 mm 4 mps 745 mmHg 95%
    08:00 -2°C° 0 mm 4 mps 746 mmHg 95%
    09:00 -2°C° 0 mm 4 mps 746 mmHg 94%
    10:00 -2°C° 0 mm 4 mps 746 mmHg 94%
    11:00 -2°C° 0 mm 4 mps 747 mmHg 94%
    12:00 -2°C° 0 mm 4 mps 747 mmHg 94%
    13:00 -2°C° 0 mm 4 mps 747 mmHg 93%
    14:00 -2°C° 0 mm 4 mps 747 mmHg 92%
    15:00 -1°C° 0 mm 3 mps 748 mmHg 92%
    16:00 -2°C° 0 mm 3 mps 748 mmHg 91%
    17:00 -2°C° 0 mm 3 mps 748 mmHg 90%
    18:00 -2°C° 0 mm 3 mps 749 mmHg 89%
    19:00 -2°C° 0 mm 3 mps 749 mmHg 90%
    20:00 -4°C° 0 mm 3 mps 749 mmHg 92%
    21:00 -4°C° 0 mm 3 mps 750 mmHg 93%
    22:00 -4°C° 0 mm 3 mps 750 mmHg 93%
    23:00 -4°C° 0 mm 3 mps 750 mmHg 94%

    21 February, Friday

    Time Temperature Precipitation Wind Pressure Humidity
    00:00 -5°C° 0 mm 3 mps 750 mmHg 94%
    01:00 -5°C° 0 mm 3 mps 751 mmHg 94%
    02:00 -6°C° 0 mm 3 mps 751 mmHg 93%
    03:00 -6°C° 0 mm 3 mps 751 mmHg 93%
    04:00 -7°C° 0 mm 3 mps 751 mmHg 93%
    05:00 -6°C° 0 mm 2 mps 751 mmHg 92%
    06:00 -7°C° 0 mm 2 mps 751 mmHg 92%
    07:00 -6°C° 0 mm 2 mps 752 mmHg 92%
    08:00 -6°C° 0 mm 2 mps 752 mmHg 93%
    09:00 -5°C° 0 mm 2 mps 752 mmHg 94%
    16:00 -3°C° 0 mm 2 mps 752 mmHg 96%
    17:00 -4°C° 0 mm 2 mps 753 mmHg 96%
    18:00 -4°C° 0 mm 2 mps 753 mmHg 97%
    19:00 -2°C° 0 mm 1 mps 753 mmHg 97%
    20:00 -2°C° 0 mm 1 mps 753 mmHg 97%
    21:00 -1°C° 0 mm 1 mps 753 mmHg 97%
    22:00 -1°C° 0 mm 1 mps 753 mmHg 97%
    23:00 -1°C° 0 mm 1 mps 753 mmHg 97%

    22 February, Saturday

    Time Temperature Precipitation Wind Pressure Humidity
    00:00 -1°C° 0 mm 1 mps 753 mmHg 97%
    01:00 -1°C° 0 mm 1 mps 753 mmHg 97%
    02:00 -1°C° 0 mm 1 mps 753 mmHg 97%
    03:00 -1°C° 0 mm 1 mps 753 mmHg 96%
    04:00 -2°C° 0 mm 1 mps 753 mmHg 96%
    05:00 -2°C° 0 mm 1 mps 753 mmHg 96%
    06:00 -2°C° 0 mm 1 mps 753 mmHg 96%
    07:00 -2°C° 0 mm 1 mps 753 mmHg 96%
    08:00 -4°C° 0 mm 2 mps 754 mmHg 96%
    09:00 -4°C° 0 mm 2 mps 754 mmHg 96%
    10:00 -4°C° 0 mm 2 mps 754 mmHg 95%
    11:00 -5°C° 0 mm 3 mps 754 mmHg 95%
    12:00 -5°C° 0 mm 3 mps 754 mmHg 94%
    13:00 -5°C° 0 mm 3 mps 753 mmHg 94%
    14:00 -5°C° 0 mm 3 mps 753 mmHg 95%
    15:00 -5°C° 0 mm 3 mps 753 mmHg 95%
    16:00 -6°C° 0 mm 3 mps 752 mmHg 95%
    17:00 -6°C° 0 mm 3 mps 752 mmHg 95%
    18:00 -6°C° 0 mm 3 mps 752 mmHg 95%
    19:00 -6°C° 0 mm 3 mps 752 mmHg 94%
    20:00 -6°C° 0 mm 3 mps 752 mmHg 94%
    21:00 -7°C° 0 mm 4 mps 751 mmHg 93%
    22:00 -7°C° 0 mm 4 mps 751 mmHg 93%
    23:00 -7°C° 0 mm 4 mps 750 mmHg 94%
    Show more